STARLINK-34530 (64491 NORAD) Tracking and Keplerian Element Data

This shows tracking and keplerian element data for the satellite.

Feedback or suggestion? Click here.




ElementValue
Catalog64491
NameSTARLINK-34530
Epoch Orbit2898
Epoch Day354.10907265
Epoch Year2025
RAAN126.4822
Inclination53.1597
Eccentricity0.0001439
Argument of Perigee92.8816
Mean Anonmoly267.235
Mean Motion15.30218235
Decay Rate0.00019205
L11 64491U 25133V 25354.10907265 .00019205 00000+0 65850-3 0 9990
L22 64491 53.1597 126.4822 0001439 92.8816 267.2350 15.30218235 28984



Live tracking and technical data element details for STARLINK-34530 (NORAD 64491). STARLINK-34530 can be tracked NOW for your location showing map with azimuth and elevation plus other details from your city location.







IsCatalogInMostPopularTable: catalog: 64491, numindb: 4
Update: records affected: 1



GetName: 64491 STARLINK-34530

Hit Count: updated at: Sat, 07 Feb 2026 08:42:04 GMT